| time (UTC) | temp C | wind direction | speed KPH | gust KPH | rain 1hr cm | rain 24hr cm | rain mn cm | humidity % | barometer mb |
| 20260505064104 | 12 | 360 | 3.2 | 4.8 | 0.00 | 0.00 | 0.00 | 92 | 1012.8 |
| 20260505063604 | 12 | 360 | 3.2 | 4.8 | 0.00 | 0.00 | 0.00 | 92 | 1012.9 |
| 20260505063104 | 12 | 360 | 1.6 | 6.4 | 0.00 | 0.00 | 0.00 | 92 | 1012.9 |
| 20260505062604 | 12 | 360 | 4.8 | 6.4 | 0.00 | 0.00 | 0.00 | 92 | 1013.0 |
| 20260505062104 | 12 | 360 | 3.2 | 6.4 | 0.00 | 0.00 | 0.00 | 92 | 1013.0 |
| 20260505061604 | 12 | 360 | 3.2 | 6.4 | 0.00 | 0.00 | 0.00 | 92 | 1012.9 |
| 20260505061104 | 12 | 360 | 4.8 | 6.4 | 0.00 | 0.00 | 0.00 | 92 | 1012.8 |
| 20260505060504 | 12 | 360 | 1.6 | 6.4 | 0.00 | 0.00 | 0.00 | 92 | 1012.7 |
| 20260505060004 | 12 | 360 | 0.0 | 6.4 | 0.00 | 0.00 | 0.00 | 92 | 1012.6 |
| 20260505055504 | 12 | 360 | 3.2 | 6.4 | 0.00 | 0.00 | 0.00 | 92 | 1012.6 |
| 20260505055006 | 12 | 360 | 1.6 | 6.4 | 0.00 | 0.00 | 0.00 | 92 | 1012.6 |
| 20260505054504 | 12 | 360 | 4.8 | 4.8 | 0.00 | 0.00 | 0.00 | 92 | 1012.6 |
| 20260505054004 | 12 | 360 | 1.6 | 4.8 | 0.00 | 0.00 | 0.00 | 92 | 1012.5 |
| 20260505053504 | 12 | 360 | 3.2 | 4.8 | 0.00 | 0.00 | 0.00 | 92 | 1012.6 |
| 20260505053004 | 12 | 360 | 4.8 | 4.8 | 0.00 | 0.00 | 0.00 | 92 | 1012.6 |
| 20260505052504 | 12 | 360 | 3.2 | 6.4 | 0.00 | 0.00 | 0.00 | 92 | 1012.5 |
| 20260505052004 | 12 | 360 | 4.8 | 6.4 | 0.00 | 0.00 | 0.00 | 92 | 1012.5 |
| 20260505051504 | 12 | 360 | 3.2 | 4.8 | 0.00 | 0.00 | 0.00 | 92 | 1012.5 |
| 20260505051005 | 12 | 360 | 4.8 | 8.0 | 0.00 | 0.00 | 0.00 | 92 | 1012.5 |
| 20260505050504 | 12 | 360 | 3.2 | 8.0 | 0.00 | 0.00 | 0.00 | 92 | 1012.5 |
| 20260505041504 | 12 | 360 | 0.0 | 3.2 | 0.00 | 0.00 | 0.00 | 92 | 1012.1 |
| 20260505040804 | 12 | 360 | 0.0 | 4.8 | 0.00 | 0.00 | 0.00 | 91 | 1012.0 |
| 20260505040304 | 12 | 360 | 1.6 | 4.8 | 0.00 | 0.00 | 0.00 | 91 | 1011.9 |
| 20260505035804 | 12 | 360 | 4.8 | 4.8 | 0.00 | 0.00 | 0.00 | 90 | 1011.9 |
| 20260505035304 | 12 | 360 | 3.2 | 4.8 | 0.00 | 0.00 | 0.00 | 89 | 1011.9 |
| 20260505034804 | 12 | 360 | 3.2 | 6.4 | 0.00 | 0.00 | 0.00 | 89 | 1011.8 |
| 20260505033904 | 13 | 360 | 4.8 | 6.4 | 0.00 | 0.00 | 0.00 | 87 | 1011.7 |
| 20260505033204 | 13 | 360 | 3.2 | 6.4 | 0.00 | 0.00 | 0.00 | 86 | 1011.5 |
| 20260505032704 | 13 | 360 | 6.4 | 8.0 | 0.00 | 0.00 | 0.00 | 86 | 1011.5 |
| 20260505032204 | 14 | 360 | 6.4 | 8.0 | 0.00 | 0.00 | 0.00 | 84 | 1011.5 |
| 20260505031704 | 15 | 360 | 3.2 | 6.4 | 0.00 | 0.00 | 0.00 | 83 | 1011.5 |
| 20260505031204 | 15 | 360 | 4.8 | 6.4 | 0.00 | 0.00 | 0.00 | 82 | 1011.3 |
| 20260505030704 | 15 | 360 | 1.6 | 6.4 | 0.00 | 0.00 | 0.00 | 81 | 1011.2 |
| 20260505030204 | 16 | 360 | 3.2 | 6.4 | 0.00 | 0.00 | 0.00 | 81 | 1011.1 |
| 20260505025704 | 16 | 360 | 3.2 | 6.4 | 0.00 | 0.00 | 0.00 | 80 | 1011.1 |
| 20260505025104 | 16 | 360 | 6.4 | 9.7 | 0.00 | 0.00 | 0.00 | 79 | 1011.0 |
| 20260505024604 | 17 | 163 | 8.0 | 9.7 | 0.00 | 0.00 | 0.00 | 78 | 1010.8 |
| 20260505024104 | 17 | 172 | 9.7 | 9.7 | 0.00 | 0.00 | 0.00 | 77 | 1010.8 |
| 20260505023604 | 17 | 168 | 8.0 | 8.0 | 0.00 | 0.00 | 0.00 | 76 | 1010.8 |
| 20260505023104 | 17 | 165 | 3.2 | 8.0 | 0.00 | 0.00 | 0.00 | 75 | 1010.8 |
| 20260505022604 | 18 | 191 | 1.6 | 8.0 | 0.00 | 0.00 | 0.00 | 76 | 1010.8 |
| 20260505022104 | 18 | 193 | 1.6 | 8.0 | 0.00 | 0.00 | 0.00 | 75 | 1010.8 |
| 20260505021604 | 18 | 210 | 4.8 | 9.7 | 0.00 | 0.00 | 0.00 | 75 | 1010.7 |
| 20260505021104 | 18 | 188 | 6.4 | 9.7 | 0.00 | 0.00 | 0.00 | 76 | 1010.8 |
| 20260505020604 | 18 | 206 | 8.0 | 9.7 | 0.00 | 0.00 | 0.00 | 75 | 1010.7 |
| 20260505020104 | 18 | 200 | 3.2 | 9.7 | 0.00 | 0.00 | 0.00 | 74 | 1010.7 |
| 20260505015604 | 18 | 180 | 9.7 | 11.3 | 0.00 | 0.00 | 0.00 | 74 | 1010.7 |
| 20260505015104 | 19 | 144 | 3.2 | 11.3 | 0.00 | 0.00 | 0.00 | 72 | 1010.6 |
| 20260505014604 | 19 | 168 | 6.4 | 12.9 | 0.00 | 0.00 | 0.00 | 71 | 1010.5 |
| 20260505013904 | 20 | 194 | 9.7 | 12.9 | 0.00 | 0.00 | 0.00 | 70 | 1010.5 |
| 20260505013404 | 20 | 193 | 4.8 | 14.5 | 0.00 | 0.00 | 0.00 | 70 | 1010.4 |
| 20260505012804 | 20 | 200 | 14.5 | 14.5 | 0.00 | 0.00 | 0.00 | 69 | 1010.4 |
| 20260505012304 | 20 | 165 | 8.0 | 12.9 | 0.00 | 0.00 | 0.00 | 69 | 1010.4 |
| 20260505011804 | 20 | 198 | 9.7 | 11.3 | 0.00 | 0.00 | 0.00 | 67 | 1010.4 |
| 20260505011304 | 20 | 198 | 8.0 | 17.7 | 0.00 | 0.00 | 0.00 | 69 | 1010.4 |
| 20260505010804 | 20 | 202 | 11.3 | 17.7 | 0.00 | 0.00 | 0.00 | 71 | 1010.4 |
| 20260505010104 | 21 | 210 | 9.7 | 12.9 | 0.00 | 0.00 | 0.00 | 68 | 1010.5 |
| 20260505005604 | 21 | 168 | 9.7 | 12.9 | 0.00 | 0.00 | 0.00 | 67 | 1010.4 |
| 20260505005104 | 21 | 167 | 8.0 | 11.3 | 0.00 | 0.00 | 0.00 | 65 | 1010.4 |
| 20260505004604 | 21 | 159 | 6.4 | 11.3 | 0.00 | 0.00 | 0.00 | 66 | 1010.4 |
| 20260505004004 | 22 | 178 | 6.4 | 12.9 | 0.00 | 0.00 | 0.00 | 66 | 1010.3 |
| 20260505003504 | 22 | 170 | 11.3 | 12.9 | 0.00 | 0.00 | 0.00 | 64 | 1010.2 |
| 20260505003004 | 22 | 201 | 12.9 | 12.9 | 0.00 | 0.00 | 0.00 | 63 | 1010.2 |
| 20260505002504 | 22 | 196 | 8.0 | 9.7 | 0.00 | 0.00 | 0.00 | 64 | 1010.2 |
| 20260505002004 | 22 | 211 | 3.2 | 12.9 | 0.00 | 0.00 | 0.00 | 63 | 1010.4 |
| 20260505001504 | 23 | 174 | 8.0 | 12.9 | 0.00 | 0.00 | 0.00 | 65 | 1010.3 |
| 20260505001004 | 23 | 146 | 4.8 | 11.3 | 0.00 | 0.00 | 0.00 | 62 | 1010.3 |
| 20260505000504 | 23 | 207 | 6.4 | 12.9 | 0.00 | 0.00 | 0.00 | 63 | 1010.3 |
| 20260504235904 | 23 | 196 | 8.0 | 12.9 | 0.00 | 0.00 | 0.00 | 62 | 1010.1 |
| 20260504235404 | 23 | 180 | 9.7 | 14.5 | 0.00 | 0.00 | 0.00 | 62 | 1010.2 |
| 20260504234904 | 23 | 196 | 8.0 | 14.5 | 0.00 | 0.00 | 0.00 | 62 | 1010.2 |
| 20260504234204 | 23 | 196 | 8.0 | 11.3 | 0.00 | 0.00 | 0.00 | 61 | 1010.1 |
| 20260504233504 | 23 | 185 | 11.3 | 12.9 | 0.00 | 0.00 | 0.00 | 61 | 1010.1 |
| 20260504233004 | 23 | 153 | 12.9 | 12.9 | 0.00 | 0.00 | 0.00 | 54 | 1010.0 |
| 20260504232504 | 23 | 168 | 9.7 | 14.5 | 0.00 | 0.00 | 0.00 | 60 | 1010.1 |
| 20260504232004 | 23 | 193 | 9.7 | 14.5 | 0.00 | 0.00 | 0.00 | 58 | 1010.1 |
| 20260504231104 | 23 | 192 | 8.0 | 12.9 | 0.00 | 0.00 | 0.00 | 57 | 1010.1 |
| 20260504230604 | 23 | 222 | 11.3 | 12.9 | 0.00 | 0.00 | 0.00 | 57 | 1010.0 |
| 20260504230104 | 23 | 220 | 12.9 | 14.5 | 0.00 | 0.00 | 0.00 | 58 | 1010.1 |
| 20260504225604 | 23 | 221 | 6.4 | 14.5 | 0.00 | 0.00 | 0.00 | 58 | 1010.1 |
| 20260504225104 | 23 | 209 | 14.5 | 14.5 | 0.00 | 0.00 | 0.00 | 63 | 1010.2 |
| 20260504224504 | 23 | 217 | 11.3 | 12.9 | 0.00 | 0.00 | 0.00 | 59 | 1010.2 |
| 20260504223804 | 23 | 219 | 6.4 | 16.1 | 0.00 | 0.00 | 0.00 | 65 | 1010.2 |
| 20260504223104 | 23 | 200 | 12.9 | 16.1 | 0.00 | 0.00 | 0.00 | 59 | 1010.2 |
| 20260504222604 | 24 | 198 | 12.9 | 19.3 | 0.00 | 0.00 | 0.00 | 59 | 1010.3 |
| 20260504222105 | 24 | 196 | 6.4 | 19.3 | 0.00 | 0.00 | 0.00 | 60 | 1010.3 |
| 20260504221604 | 24 | 161 | 9.7 | 14.5 | 0.00 | 0.00 | 0.00 | 59 | 1010.4 |
| 20260504221104 | 24 | 246 | 4.8 | 17.7 | 0.00 | 0.00 | 0.00 | 62 | 1010.4 |
| 20260504220604 | 24 | 172 | 4.8 | 17.7 | 0.00 | 0.00 | 0.00 | 62 | 1010.3 |
| 20260504220005 | 24 | 221 | 12.9 | 12.9 | 0.00 | 0.00 | 0.00 | 64 | 1010.4 |
| 20260504215504 | 24 | 163 | 12.9 | 12.9 | 0.00 | 0.00 | 0.00 | 61 | 1010.4 |
| 20260504215003 | 24 | 205 | 6.4 | 11.3 | 0.00 | 0.00 | 0.00 | 62 | 1010.4 |
| 20260504214504 | 24 | 179 | 8.0 | 11.3 | 0.00 | 0.00 | 0.00 | 62 | 1010.4 |
| 20260504213904 | 25 | 198 | 9.7 | 9.7 | 0.00 | 0.00 | 0.00 | 60 | 1010.4 |
| 20260504213004 | 25 | 204 | 4.8 | 8.0 | 0.00 | 0.00 | 0.00 | 60 | 1010.5 |
| 20260504211904 | 24 | 142 | 3.2 | 9.7 | 0.00 | 0.00 | 0.00 | 66 | 1010.5 |
| 20260504211404 | 24 | 188 | 9.7 | 9.7 | 0.00 | 0.00 | 0.00 | 63 | 1010.6 |
| 20260504210904 | 24 | 186 | 3.2 | 8.0 | 0.00 | 0.00 | 0.00 | 63 | 1010.7 |
| 20260504210404 | 23 | 175 | 3.2 | 8.0 | 0.00 | 0.00 | 0.00 | 70 | 1010.7 |
| 20260504205805 | 24 | 188 | 1.6 | 4.8 | 0.00 | 0.00 | 0.00 | 63 | 1010.7 |
| 20260504205304 | 23 | 117 | 3.2 | 12.9 | 0.00 | 0.00 | 0.00 | 66 | 1010.8 |
| 20260504204804 | 23 | 157 | 3.2 | 12.9 | 0.00 | 0.00 | 0.00 | 66 | 1011.0 |
| 20260504204104 | 23 | 76 | 6.4 | 8.0 | 0.00 | 0.00 | 0.00 | 66 | 1011.0 |
| 20260504203604 | 23 | 139 | 1.6 | 8.0 | 0.00 | 0.00 | 0.00 | 69 | 1011.1 |
| 20260504202904 | 22 | 200 | 0.0 | 4.8 | 0.00 | 0.00 | 0.00 | 67 | 1011.1 |
| 20260504202404 | 22 | 136 | 3.2 | 4.8 | 0.00 | 0.00 | 0.00 | 66 | 1011.2 |
| 20260504201904 | 22 | 184 | 3.2 | 8.0 | 0.00 | 0.00 | 0.00 | 65 | 1011.2 |
| 20260504201404 | 22 | 152 | 1.6 | 8.0 | 0.00 | 0.00 | 0.00 | 67 | 1011.3 |
| 20260504200904 | 22 | 126 | 3.2 | 8.0 | 0.00 | 0.00 | 0.00 | 69 | 1011.3 |
| 20260504200404 | 21 | 276 | 3.2 | 8.0 | 0.00 | 0.00 | 0.00 | 66 | 1011.5 |
| 20260504195904 | 22 | 191 | 4.8 | 4.8 | 0.00 | 0.00 | 0.00 | 70 | 1011.5 |
| 20260504195404 | 21 | 179 | 1.6 | 9.7 | 0.00 | 0.00 | 0.00 | 65 | 1011.6 |
| 20260504194904 | 21 | 154 | 1.6 | 9.7 | 0.00 | 0.00 | 0.00 | 71 | 1011.7 |
| 20260504194404 | 21 | 237 | 1.6 | 6.4 | 0.00 | 0.00 | 0.00 | 70 | 1011.8 |
| 20260504193904 | 21 | 205 | 4.8 | 6.4 | 0.00 | 0.00 | 0.00 | 72 | 1011.7 |
| 20260504193304 | 20 | 167 | 0.0 | 9.7 | 0.00 | 0.00 | 0.00 | 74 | 1011.8 |
| 20260504192804 | 20 | 182 | 3.2 | 9.7 | 0.00 | 0.00 | 0.00 | 72 | 1011.8 |
| 20260504192105 | 20 | 189 | 3.2 | 4.8 | 0.00 | 0.00 | 0.00 | 71 | 1012.0 |
| 20260504191603 | 20 | 173 | 4.8 | 8.0 | 0.00 | 0.00 | 0.00 | 72 | 1012.0 |
| 20260504191004 | 19 | 214 | 3.2 | 14.5 | 0.00 | 0.00 | 0.00 | 75 | 1012.0 |
| 20260504190504 | 19 | 217 | 11.3 | 14.5 | 0.00 | 0.00 | 0.00 | 75 | 1011.9 |
| 20260504190004 | 19 | 202 | 8.0 | 9.7 | 0.00 | 0.00 | 0.00 | 75 | 1011.9 |
| 20260504185504 | 18 | 165 | 8.0 | 8.0 | 0.00 | 0.00 | 0.00 | 76 | 1011.9 |
| 20260504185005 | 18 | 213 | 8.0 | 8.0 | 0.00 | 0.00 | 0.00 | 76 | 1012.0 |
| 20260504184504 | 18 | 219 | 6.4 | 8.0 | 0.00 | 0.00 | 0.00 | 79 | 1012.2 |
| 20260504184004 | 18 | 209 | 3.2 | 9.7 | 0.00 | 0.00 | 0.00 | 77 | 1012.2 |
| 20260504183504 | 18 | 197 | 3.2 | 9.7 | 0.00 | 0.00 | 0.00 | 78 | 1012.3 |
| 20260504183004 | 18 | 203 | 9.7 | 9.7 | 0.00 | 0.00 | 0.00 | 79 | 1012.2 |
| 20260504182504 | 17 | 233 | 8.0 | 8.0 | 0.00 | 0.00 | 0.00 | 80 | 1012.2 |
| 20260504182004 | 17 | 217 | 6.4 | 6.4 | 0.00 | 0.00 | 0.00 | 77 | 1012.3 |
| 20260504181504 | 17 | 195 | 0.0 | 6.4 | 0.00 | 0.00 | 0.00 | 78 | 1012.3 |
| 20260504180804 | 17 | 92 | 1.6 | 6.4 | 0.00 | 0.00 | 0.00 | 79 | 1012.4 |
| 20260504180204 | 17 | 44 | 1.6 | 4.8 | 0.00 | 0.00 | 0.00 | 81 | 1012.5 |
| 20260504175704 | 16 | 346 | 3.2 | 6.4 | 0.00 | 0.00 | 0.00 | 81 | 1012.5 |
| 20260504175204 | 16 | 341 | 3.2 | 6.4 | 0.00 | 0.00 | 0.00 | 82 | 1012.4 |
| 20260504174705 | 16 | 226 | 1.6 | 6.4 | 0.00 | 0.00 | 0.00 | 83 | 1012.4 |
| 20260504174204 | 16 | 194 | 3.2 | 6.4 | 0.00 | 0.00 | 0.00 | 83 | 1012.5 |
| 20260504173704 | 16 | 338 | 1.6 | 6.4 | 0.00 | 0.00 | 0.00 | 83 | 1012.4 |
| 20260504173204 | 16 | 238 | 6.4 | 6.4 | 0.00 | 0.00 | 0.00 | 86 | 1012.5 |
| 20260504172704 | 15 | 179 | 3.2 | 6.4 | 0.00 | 0.00 | 0.00 | 85 | 1012.5 |
| 20260504172204 | 15 | 179 | 3.2 | 8.0 | 0.00 | 0.00 | 0.00 | 85 | 1012.5 |
| 20260504171704 | 15 | 200 | 6.4 | 8.0 | 0.00 | 0.00 | 0.00 | 87 | 1012.4 |
| 20260504171204 | 15 | 311 | 3.2 | 6.4 | 0.00 | 0.00 | 0.00 | 84 | 1012.5 |
| 20260504170704 | 15 | 194 | 1.6 | 6.4 | 0.00 | 0.00 | 0.00 | 88 | 1012.5 |
| 20260504170204 | 14 | 213 | 1.6 | 8.0 | 0.00 | 0.00 | 0.00 | 87 | 1012.6 |
| 20260504160306 | 12 | 360 | 4.8 | 9.7 | 0.00 | 0.00 | 0.00 | 93 | 1012.4 |
| 20260504150804 | 11 | 360 | 6.4 | 6.4 | 0.00 | 0.00 | 0.00 | 96 | 1012.0 |
| 20260504150305 | 11 | 360 | 1.6 | 6.4 | 0.00 | 0.00 | 0.00 | 96 | 1012.0 |
| 20260504140904 | 11 | 184 | 1.6 | 1.6 | 0.00 | 0.00 | 0.00 | 98 | 1011.6 |
| 20260504140404 | 11 | 184 | 1.6 | 1.6 | 0.00 | 0.00 | 0.00 | 98 | 1011.5 |
| 20260504130704 | 11 | 185 | 0.0 | 3.2 | 0.00 | 0.00 | 0.00 | 98 | 1011.0 |
| 20260504130204 | 11 | 185 | 3.2 | 3.2 | 0.00 | 0.00 | 0.00 | 98 | 1010.9 |
| 20260504120304 | 9 | 217 | 3.2 | 3.2 | 0.00 | 0.00 | 0.00 | 99 | 1010.2 |
| 20260504110504 | 8 | 242 | 0.0 | 0.0 | 0.00 | 0.00 | 0.00 | 97 | 1009.9 |
| 20260504100604 | 9 | 360 | 0.0 | 1.6 | 0.00 | 0.00 | 0.00 | 97 | 1009.4 |
| 20260504100104 | 10 | 360 | 0.0 | 1.6 | 0.00 | 0.00 | 0.00 | 97 | 1009.4 |
| 20260504081704 | 11 | 241 | 0.0 | 1.6 | 0.00 | 0.00 | 0.00 | 96 | 1008.9 |
| 20260504081204 | 11 | 360 | 0.0 | 3.2 | 0.00 | 0.00 | 0.00 | 96 | 1008.9 |
| 20260504080704 | 11 | 242 | 0.0 | 3.2 | 0.00 | 0.00 | 0.00 | 96 | 1008.9 |
| 20260504080203 | 11 | 360 | 1.6 | 1.6 | 0.00 | 0.00 | 0.00 | 96 | 1008.8 |